Welcome to the New NWS' Forecast!
Most changes are behind the scenes, but click here for differences you might notice.
Latest weather observations around

Troy, Troy Municipal Airport (KTOI)

Using English Units (Switch to International System of Units)
Date/ Time (CST) Wind (mph) Vis. (mi) Weather Sky Cond. Temp (°F) Rel. Humidity Wind Chill (°F) Heat Index (°F) Pressure Precip. (in)
Air Dwpt 6 hour Altimeter (inHg) Sea level (inHg) 1 hr 3 hr 6 hr
Max Min
Nov 18 01:53 Calm 10 Clear CLR 48 46     93%     30.03 30.02      
Nov 18 00:53 Calm 10 Clear CLR 48 46     93%     30.03 30.02      
Nov 17 23:53 Calm 10 Clear CLR 49 46     90%     30.05 30.04      
Nov 17 22:53 Calm 10 Clear CLR 49 47     93%     30.06 30.06      
Nov 17 21:53 Calm 10 Clear CLR 49 47     93%     30.08 30.07      
Nov 17 20:53 Calm 10 Clear CLR 50 48     93%     30.09 30.08      
Nov 17 19:53 Calm 10 Clear CLR 50 48     93%     30.09 30.09      
Nov 17 18:53 Calm 10 Clear CLR 52 48     86%     30.09 30.09      
Nov 17 17:53 Calm 10 Clear CLR 55 50     83%     30.08 30.08      
Nov 17 16:53 Calm 10 Clear CLR 58 50     75%     30.07 30.07      
Nov 17 15:53 ESE 3 10 Clear CLR 68 46     45%     30.06 30.06      
Nov 17 14:53 Calm 10 Clear CLR 71 44     38%   70 30.07 30.06      
Nov 17 13:53   10 Clear CLR 71 44     38%   70 30.08 30.07      
Nov 17 12:53 NNW 5 10 Clear CLR 70 45     41%     30.1 30.09      
Nov 17 11:53 NNE 5 10 Clear CLR 67 45     45%     30.12 30.11      
Nov 17 10:53 5 10 Clear CLR 67 45     45%     30.16 30.15      
Nov 17 09:53 NE 5 10 Clear CLR 62 46     56%     30.18 30.18      
Nov 17 08:53 E 5 10 Clear CLR 55 47     74%     30.19 30.19      
Nov 17 07:53 Calm 10 Clear CLR 47 47     100%     30.2 30.19      
Nov 17 06:53 Calm 3 Fog/Mist CLR 42 42     100%     30.18 30.18      
Nov 17 06:47 5 2 Fog/Mist FEW002 41 41     100% 38   30.17        
Nov 17 06:44 Calm 1.5 Fog/Mist FEW002 41 41     100%     30.17        
Nov 17 06:42 Calm 1 Fog/Mist VV002 41 41     100%     30.17        
Nov 17 06:20 Calm 0.5 Fog VV002 41 41     100%     30.17        
Nov 17 06:13 Calm 0.75 Fog/Mist VV002 41 41     100%     30.16        
Nov 17 05:53 Calm 0.5 Fog VV002 42 42     100%     30.16 30.15      
Nov 17 05:10 Calm 0.5 Fog VV002 43 43     100%     30.15        
Nov 17 04:53 Calm 0.75 Fog/Mist OVC002 42 42     100%     30.14 30.14      
Nov 17 04:30 Calm 0.75 Fog/Mist OVC002 43 43     100%     30.14        
Nov 17 03:53 Calm 0.5 Fog VV002 43 43     100%     30.13 30.13      
Nov 17 02:53 Calm 0.25 Fog VV002 43 43     100%     30.14 30.13      
Nov 17 02:45 Calm 0.5 Fog OVC001 43 43     100%     30.14        
Nov 17 02:15 Calm 1 Fog/Mist OVC001 43 43     100%     30.14        
Nov 17 02:10 Calm 0.5 Fog OVC001 43 43     100%     30.14        
Nov 17 02:00 Calm 0.75 Fog/Mist OVC001 42 42     100%     30.13        
Nov 17 01:57 Calm 1.25 Fog/Mist OVC001 43 43     100%     30.13        
Nov 17 01:55 Calm 1.75 Fog/Mist OVC001 43 43     100%     30.13        
Nov 17 01:53 Calm 3 Fog/Mist OVC001 43 43     100%     30.14 30.13      
Nov 17 01:41 Calm 6 Fog/Mist OVC001 43 43     100%     30.14        
Nov 17 01:33 Calm 2 Fog/Mist OVC001 44 44     100%     30.14        
Nov 17 01:31 Calm 1.5 Fog/Mist OVC001 44 44     100%     30.14        
Nov 17 01:27 Calm 1 Fog/Mist OVC001 43 43     100%     30.14        
Nov 17 01:18 Calm 0.5 Fog OVC001 43 43     100%     30.14        
Nov 17 01:15 Calm 1 Fog/Mist OVC001 44 44     100%     30.14        
Nov 17 01:13 Calm 1.75 Fog/Mist OVC001 44 44     100%     30.14        
Nov 17 00:53 Calm 10 Mostly Cloudy BKN001 44 44     100%     30.15 30.14      
Nov 17 00:48 Calm 10 Mostly Cloudy BKN001 45 45     100%     30.15        
Nov 17 00:39 Calm 8 Partly Cloudy SCT001 44 44     100%     30.15        
Nov 16 23:53 Calm 9 Clear CLR 45 45     100%     30.15 30.14      
Nov 16 22:53 Calm 10 Clear CLR 46 46     100%     30.15 30.14      
Nov 16 21:53 Calm 10 Clear CLR 48 47     96%     30.15 30.14      
Nov 16 20:53 Calm 4 Fog/Mist CLR 48 48     100%     30.14 30.13      
Nov 16 19:53 Calm 10 Clear CLR 51 51     100%     30.13 30.13      
Nov 16 18:53 Calm 10 Clear CLR 52 51     97%     30.12 30.12      
Nov 16 17:53 Calm 10 Clear CLR 56 52     87%     30.11 30.11      
Nov 16 16:53 Calm 10 Clear CLR 60 53     78%     30.11 30.1      
Nov 16 14:53 NNE 7 10 Clear CLR 69 51     53%     30.09 30.09      
Nov 16 13:53 N 10 10 Clear CLR 70 51     51%     30.1 30.09      
Nov 16 12:53 NW 9 10 Clear CLR 69 51     53%     30.11 30.1      
Nov 16 11:53 NE 7 10 Clear CLR 68 50     53%     30.12 30.12      
Nov 16 10:53 N 7 10 Clear CLR 67 50     55%     30.16 30.15      
Nov 16 09:53 NNW 5 10 Clear CLR 63 49     60%     30.18 30.17      
Nov 16 08:53 Calm 10 Clear CLR 57 49     74%     30.18 30.18      
Nov 16 07:53 Calm 10 Clear CLR 48 46     93%     30.18 30.18      
Nov 16 06:53 Calm 10 Clear CLR 42 41     96%     30.17 30.17      
Nov 16 05:53 Calm 10 Clear CLR 40 40     100%     30.15 30.15      
Nov 16 04:53 Calm 10 Clear CLR 40 40     100%     30.13 30.13      
Nov 16 03:53 Calm 10 Clear CLR 40 40     100%     30.12 30.11      
Nov 16 02:53 Calm 10 Clear CLR 41 41     100%     30.12 30.11      
Nov 16 01:53 Calm 10 Clear CLR 41 41     100%     30.12 30.11      
Nov 16 00:53 Calm 10 Mostly Cloudy BKN080 42 42     100%     30.13 30.12      
Nov 15 23:53 NNW 3 10 Clear CLR 43 43     100% 41   30.14 30.13      
Nov 15 22:53 Calm 10 Clear CLR 42 42     100%     30.13 30.12      
Nov 15 21:53 Calm 10 Clear CLR 45 44     97%     30.14 30.14      
Nov 15 20:53 Calm 10 Clear CLR 45 45     100%     30.14 30.14      
Nov 15 19:53 Calm 10 Clear CLR 48 47     96%     30.13 30.13      
Nov 15 18:53 ESE 5 10 Clear CLR 48 48     100% 46   30.11 30.11      
Nov 15 17:53 Calm 10 Clear CLR 51 48     89%     30.13 30.13      
Nov 15 16:53 Calm 10 Clear CLR 55 47     74%     30.09 30.09      
Nov 15 15:53 Calm 10 Clear CLR 61 44     54%     30.09 30.09      
Nov 15 14:53 ENE 5 10 Clear CLR 62 44     52%     30.09 30.09      
Nov 15 13:53 NNE 5 10 Clear CLR 62 43     50%     30.11 30.1      
Nov 15 12:53 3 10 Clear CLR 61 42     50%     30.11 30.11      
Nov 15 11:53 Calm 10 Clear CLR 59 42     53%     30.13 30.12      
Nov 15 10:53 E 8 10 Clear CLR 58 42     55%     30.17 30.17      
Nov 15 09:53 ESE 6 10 Clear CLR 56 42     60%     30.2 30.19      
Nov 15 08:53 E 10 10 Clear CLR 51 42     71%     30.2 30.2      
Nov 15 07:53 Calm 10 Clear CLR 48 44     86%     30.21 30.2      
Nov 15 06:53 ENE 3 10 Clear CLR 42 42     100% 40   30.19 30.19      
Nov 15 05:53 ENE 3 10 Clear CLR 41 41     100% 39   30.18 30.18      
Nov 15 04:53 NE 5 10 Clear CLR 41 40     96% 38   30.17 30.16      
Nov 15 03:53 ENE 5 10 Clear CLR 42 42     100% 39   30.16 30.16      
Nov 15 02:53 ENE 5 10 Clear CLR 44 43     96% 41   30.17 30.16      
Jun 12 06:39 3 10 Mostly Clear FEW002 71 71     100%   73 30.15        
Jun 12 05:53 Calm 10 Mostly Clear FEW011 70 70     100%     30.14 30.12      
Jun 11 21:53 SSW 3 9 Cloudy OVC100 74 70     87%   75 30.15 30.13 0 0  
Jun 11 20:00 Calm 10 Cloudy OVC070 75 74     96%   77 30.11        
Notice The following observation data may not be complete
Jun 11 07:13   10 Partly Cloudy SCT016          %              
Jun 10 12:53 ESE 9 10 Mostly Cloudy FEW050 BKN075 87 64     46%   88 30.08 30.06      
Jun 10 04:53 Calm 10 Clear CLR 63 63     100%     30.01 30      
Jun 09 15:53   10 Clear CLR 86 60     42%   86 29.93 29.92      
Jun 08 12:53 6 10 Mostly Clear FEW040 81 62     53%   82 29.91 29.89      
Jun 08 09:53 5 10 Clear CLR 73 62     68%   73 29.91 29.9      
Jun 08 07:53 NE 8 10 Clear CLR 68 63     84%     29.9 29.89      
Jun 08 00:53 Calm 10 Clear CLR 68 67     96%     29.84 29.82      
Jun 07 10:53 NE 10 10 Mostly Cloudy BKN019 BKN024 BKN032 79 70     74%   82 29.76 29.74      
Notice The following observation data may not be complete
Jun 06 03:28   8 Partly Cloudy FEW002 SCT015          %              
Jun 05 22:53 Calm 10 Cloudy SCT024 BKN050 OVC095 72 72     100%   74 29.84 29.83      
Jun 05 16:53 S 8 10 Mostly Clear FEW032 81 71     72%   85 29.8 29.78      
Jun 05 15:53 SSE 8 10 Mostly Clear FEW018 79 73     82%   82 29.8 29.78   0  
Jun 05 14:32 S 5 10 Mostly Clear FEW007 75 73     94%   77 29.84   0